Check out our new BloomSky Weather System.

Active alerts


No alerts


Thunder radar  blitzortung!


Rain radar more information rain snow radar


Visit our other weather sites:

Template documentation
and downloads

And another site



Weather Underground History page Text

Daily Summary for August 18, 2017 Units:  English    Metric   Both
« Previous Day
Next Day »
Daily Weekly Monthly Yearly Custom
  High: Low: Average:
Temperature: 100.2 °F 78.3 °F 88.2 °F
Dew Point: 81.7 °F 75.7 °F 78 °F
Humidity: 96 % 46 % 74 %
Wind Speed: 9.0 mph 0.0 mph 2.1 mph
Wind Gust: 12.0 mph - -
Wind:- - South
Pressure: 30.04 in 29.92 in -
Precipitation: 0.00 in    
Historical Graphs
 
 
Tabular Data for August 18, 2017
Time Temperature Dew Point Pressure Wind Wind Speed Wind Gust Humidity Rainfall Rate (Hourly)
00:02 83.7 °F 76.5 °F 30.01 in SSE 1.0 mph 4.0 mph 79 % 0.00 in
00:07 83.5 °F 76.3 °F 30.01 in Calm   4.0 mph 79 % 0.00 in
00:12 83.5 °F 76.3 °F 30.01 in SSE 1.0 mph 4.0 mph 79 % 0.00 in
00:17 83.1 °F 76.3 °F 30.01 in South 2.0 mph 3.0 mph 80 % 0.00 in
00:22 83.1 °F 76.3 °F 30.00 in ESE 2.0 mph 3.0 mph 80 % 0.00 in
00:27 82.9 °F 76.1 °F 30.00 in SSE 1.0 mph 4.0 mph 80 % 0.00 in
00:32 82.8 °F 76.3 °F 30.00 in South 2.0 mph 4.0 mph 81 % 0.00 in
00:37 82.8 °F 76.6 °F 30.00 in SSE 2.0 mph 5.0 mph 82 % 0.00 in
00:42 82.8 °F 76.6 °F 30.00 in SE 1.0 mph 5.0 mph 82 % 0.00 in
00:47 82.6 °F 76.8 °F 30.00 in SSE 3.0 mph 5.0 mph 83 % 0.00 in
00:52 82.6 °F 76.8 °F 30.00 in SSE 2.0 mph 5.0 mph 83 % 0.00 in
00:57 82.6 °F 76.8 °F 30.00 in SSE 3.0 mph 5.0 mph 83 % 0.00 in
01:02 82.6 °F 77.2 °F 29.99 in SSE 2.0 mph 6.0 mph 84 % 0.00 in
01:07 82.6 °F 77.2 °F 29.99 in ESE 3.0 mph 6.0 mph 84 % 0.00 in
01:12 82.6 °F 77.2 °F 29.99 in South 4.0 mph 6.0 mph 84 % 0.00 in
01:17 82.6 °F 77.2 °F 29.99 in SE 4.0 mph 5.0 mph 84 % 0.00 in
01:22 82.6 °F 77.2 °F 29.99 in SE 2.0 mph 5.0 mph 84 % 0.00 in
01:27 82.4 °F 77.0 °F 29.99 in SSE 2.0 mph 5.0 mph 84 % 0.00 in
01:32 82.2 °F 77.2 °F 29.99 in SSE 2.0 mph 5.0 mph 85 % 0.00 in
01:37 82.2 °F 77.2 °F 29.99 in SSE 1.0 mph 5.0 mph 85 % 0.00 in
01:42 82.0 °F 77.4 °F 29.99 in South 2.0 mph 5.0 mph 86 % 0.00 in
01:47 82.0 °F 77.4 °F 29.99 in SE 1.0 mph 5.0 mph 86 % 0.00 in
01:52 81.9 °F 77.2 °F 29.99 in South 1.0 mph 4.0 mph 86 % 0.00 in
01:57 81.9 °F 77.5 °F 29.99 in SE 4.0 mph 5.0 mph 87 % 0.00 in
02:02 81.9 °F 77.5 °F 29.99 in Calm   5.0 mph 87 % 0.00 in
02:07 81.7 °F 77.4 °F 29.99 in SSW 1.0 mph 5.0 mph 87 % 0.00 in
02:12 81.7 °F 77.7 °F 29.99 in South 2.0 mph 5.0 mph 88 % 0.00 in
02:17 81.5 °F 77.5 °F 29.99 in SE 3.0 mph 4.0 mph 88 % 0.00 in
02:23 81.5 °F 77.5 °F 29.99 in SSW 3.0 mph 4.0 mph 88 % 0.00 in
02:28 81.5 °F 77.5 °F 29.99 in SSW 1.0 mph 5.0 mph 88 % 0.00 in
02:33 81.3 °F 77.7 °F 29.99 in South 1.0 mph 5.0 mph 89 % 0.00 in
02:38 81.3 °F 77.7 °F 29.99 in South 2.0 mph 5.0 mph 89 % 0.00 in
02:43 81.3 °F 77.7 °F 29.98 in South 5.0 mph 5.0 mph 89 % 0.00 in
02:48 81.3 °F 77.7 °F 29.98 in SSE 2.0 mph 5.0 mph 89 % 0.00 in
02:53 81.3 °F 77.7 °F 29.98 in SSW 4.0 mph 5.0 mph 89 % 0.00 in
02:58 81.3 °F 77.7 °F 29.98 in SSE 5.0 mph 7.0 mph 89 % 0.00 in
03:03 81.3 °F 77.7 °F 29.98 in SE 2.0 mph 7.0 mph 89 % 0.00 in
03:08 81.3 °F 77.7 °F 29.98 in SSW 3.0 mph 7.0 mph 89 % 0.00 in
03:13 81.1 °F 77.9 °F 29.98 in SE 1.0 mph 7.0 mph 90 % 0.00 in
03:18 81.1 °F 77.9 °F 29.98 in SSE 1.0 mph 4.0 mph 90 % 0.00 in
03:23 81.1 °F 77.9 °F 29.97 in SE 1.0 mph 5.0 mph 90 % 0.00 in
03:28 81.1 °F 77.9 °F 29.97 in South 5.0 mph 5.0 mph 90 % 0.00 in
03:33 81.0 °F 77.7 °F 29.97 in SE 4.0 mph 6.0 mph 90 % 0.00 in
03:38 81.0 °F 77.7 °F 29.97 in SE 2.0 mph 6.0 mph 90 % 0.00 in
03:43 81.0 °F 78.1 °F 29.97 in South 2.0 mph 6.0 mph 91 % 0.00 in
03:48 81.0 °F 77.7 °F 29.97 in South 2.0 mph 5.0 mph 90 % 0.00 in
03:53 80.8 °F 77.9 °F 29.98 in Calm   4.0 mph 91 % 0.00 in
03:58 80.8 °F 77.9 °F 29.98 in SSE 1.0 mph 4.0 mph 91 % 0.00 in
04:03 80.6 °F 77.7 °F 29.98 in SSE 1.0 mph 4.0 mph 91 % 0.00 in
04:08 80.4 °F 77.5 °F 29.97 in SSE 1.0 mph 4.0 mph 91 % 0.00 in
04:13 80.4 °F 77.5 °F 29.97 in Calm   4.0 mph 91 % 0.00 in
04:18 80.2 °F 77.7 °F 29.97 in South 1.0 mph 3.0 mph 92 % 0.00 in
04:23 80.2 °F 77.7 °F 29.97 in South 3.0 mph 3.0 mph 92 % 0.00 in
04:28 80.2 °F 77.7 °F 29.97 in Calm   4.0 mph 92 % 0.00 in
04:33 80.2 °F 77.7 °F 29.97 in South 3.0 mph 4.0 mph 92 % 0.00 in
04:38 80.2 °F 77.7 °F 29.97 in SSW 3.0 mph 4.0 mph 92 % 0.00 in
04:43 80.2 °F 77.7 °F 29.97 in SSE 1.0 mph 4.0 mph 92 % 0.00 in
04:48 80.2 °F 77.7 °F 29.97 in South 2.0 mph 4.0 mph 92 % 0.00 in
04:53 80.2 °F 77.7 °F 29.97 in SSE 1.0 mph 3.0 mph 92 % 0.00 in
04:58 80.1 °F 77.5 °F 29.97 in Calm   3.0 mph 92 % 0.00 in
05:03 80.1 °F 77.5 °F 29.97 in Calm   3.0 mph 92 % 0.00 in
05:08 79.9 °F 77.7 °F 29.97 in South 1.0 mph 2.0 mph 93 % 0.00 in
05:13 79.9 °F 77.7 °F 29.97 in South 1.0 mph 2.0 mph 93 % 0.00 in
05:18 79.9 °F 77.7 °F 29.97 in SSE 1.0 mph 2.0 mph 93 % 0.00 in
05:23 79.9 °F 77.7 °F 29.97 in Calm   2.0 mph 93 % 0.00 in
05:28 79.7 °F 77.5 °F 29.97 in Calm   2.0 mph 93 % 0.00 in
05:33 79.5 °F 77.4 °F 29.97 in Calm   1.0 mph 93 % 0.00 in
05:38 79.3 °F 77.2 °F 29.97 in Calm   1.0 mph 93 % 0.00 in
05:43 79.2 °F 77.0 °F 29.97 in Calm   1.0 mph 93 % 0.00 in
05:48 79.0 °F 76.8 °F 29.98 in Calm     93 % 0.00 in
05:53 78.8 °F 77.0 °F 29.98 in Calm     94 % 0.00 in
05:58 78.8 °F 77.0 °F 29.98 in Calm     94 % 0.00 in
06:04 78.8 °F 77.0 °F 29.98 in Calm     94 % 0.00 in
06:09 79.0 °F 77.4 °F 29.99 in Calm     95 % 0.00 in
06:14 78.8 °F 77.0 °F 29.99 in Calm     94 % 0.00 in
06:19 78.6 °F 76.8 °F 29.99 in Calm     94 % 0.00 in
06:24 78.4 °F 76.6 °F 29.99 in Calm     94 % 0.00 in
06:29 78.4 °F 76.8 °F 29.99 in Calm     95 % 0.00 in
06:34 78.4 °F 76.8 °F 29.99 in Calm     95 % 0.00 in
06:39 78.4 °F 76.8 °F 29.99 in Calm     95 % 0.00 in
06:44 78.3 °F 76.6 °F 29.99 in Calm     95 % 0.00 in
06:49 78.3 °F 76.6 °F 29.99 in Calm     95 % 0.00 in
06:54 78.3 °F 77.0 °F 29.99 in Calm     96 % 0.00 in
06:59 78.3 °F 77.0 °F 29.99 in Calm     96 % 0.00 in
07:04 78.4 °F 77.2 °F 30.00 in SSE 1.0 mph   96 % 0.00 in
07:09 78.6 °F 77.4 °F 30.00 in Calm   1.0 mph 96 % 0.00 in
07:14 78.6 °F 77.0 °F 30.00 in Calm   1.0 mph 95 % 0.00 in
07:19 78.6 °F 77.4 °F 30.00 in Calm   1.0 mph 96 % 0.00 in
07:24 78.8 °F 77.2 °F 30.01 in Calm     95 % 0.00 in
07:29 79.0 °F 77.4 °F 30.01 in Calm     95 % 0.00 in
07:30 79.0 °F 77.4 °F 30.01 in Calm     95 % 0.00 in
07:35 79.2 °F 77.9 °F 30.01 in Calm     96 % 0.00 in
07:40 79.5 °F 78.3 °F 30.01 in Calm     96 % 0.00 in
07:45 80.1 °F 78.4 °F 30.01 in Calm   1.0 mph 95 % 0.00 in
07:50 80.8 °F 79.2 °F 30.01 in Calm   2.0 mph 95 % 0.00 in
07:55 81.1 °F 79.2 °F 30.01 in Calm   2.0 mph 94 % 0.00 in
08:00 81.9 °F 79.9 °F 30.02 in Calm   2.0 mph 94 % 0.00 in
08:05 82.2 °F 79.7 °F 30.02 in Calm   1.0 mph 92 % 0.00 in
08:10 82.9 °F 80.4 °F 30.02 in Calm   1.0 mph 92 % 0.00 in
08:15 83.3 °F 80.4 °F 30.02 in SSE 1.0 mph 2.0 mph 91 % 0.00 in
08:20 83.7 °F 80.4 °F 30.02 in Calm   2.0 mph 90 % 0.00 in
08:25 84.4 °F 80.4 °F 30.02 in Calm   2.0 mph 88 % 0.00 in
08:30 84.7 °F 80.8 °F 30.02 in Calm   2.0 mph 88 % 0.00 in
08:35 85.3 °F 80.6 °F 30.02 in SW 1.0 mph 2.0 mph 86 % 0.00 in
08:40 85.5 °F 80.8 °F 30.02 in Calm   2.0 mph 86 % 0.00 in
08:45 85.8 °F 81.1 °F 30.02 in Calm   2.0 mph 86 % 0.00 in
08:50 86.2 °F 80.8 °F 30.03 in Calm   2.0 mph 84 % 0.00 in
08:55 86.5 °F 81.1 °F 30.03 in Calm   3.0 mph 84 % 0.00 in
09:00 86.5 °F 80.8 °F 30.03 in North 1.0 mph 3.0 mph 83 % 0.00 in
09:05 86.5 °F 80.8 °F 30.03 in Calm   5.0 mph 83 % 0.00 in
09:10 86.9 °F 81.1 °F 30.03 in SSW 1.0 mph 5.0 mph 83 % 0.00 in
09:15 87.1 °F 81.0 °F 30.03 in South 3.0 mph 6.0 mph 82 % 0.00 in
09:20 86.9 °F 81.1 °F 30.03 in Calm   6.0 mph 83 % 0.00 in
09:25 87.4 °F 81.7 °F 30.04 in SSW 1.0 mph 6.0 mph 83 % 0.00 in
09:30 87.8 °F 80.8 °F 30.04 in Calm   6.0 mph 80 % 0.00 in
09:35 87.8 °F 80.8 °F 30.04 in NNE 1.0 mph 6.0 mph 80 % 0.00 in
09:40 88.2 °F 81.5 °F 30.04 in West 1.0 mph 6.0 mph 81 % 0.00 in
09:45 88.9 °F 80.8 °F 30.04 in SSW 5.0 mph 5.0 mph 77 % 0.00 in
09:50 88.3 °F 80.2 °F 30.04 in SSW 3.0 mph 7.0 mph 77 % 0.00 in
09:55 87.6 °F 79.5 °F 30.04 in SE 3.0 mph 7.0 mph 77 % 0.00 in
10:00 88.2 °F 80.8 °F 30.04 in South 1.0 mph 7.0 mph 79 % 0.00 in
10:05 88.9 °F 80.8 °F 30.04 in SSE 1.0 mph 7.0 mph 77 % 0.00 in
10:10 89.8 °F 80.8 °F 30.04 in SW 2.0 mph 6.0 mph 75 % 0.00 in
10:15 90.0 °F 80.6 °F 30.04 in WSW 1.0 mph 6.0 mph 74 % 0.00 in
10:20 90.3 °F 80.4 °F 30.04 in SSW 2.0 mph 6.0 mph 73 % 0.00 in
10:25 90.1 °F 79.9 °F 30.04 in SSW 2.0 mph 6.0 mph 72 % 0.00 in
10:30 89.8 °F 79.5 °F 30.04 in Calm   5.0 mph 72 % 0.00 in
10:35 89.2 °F 79.9 °F 30.04 in Calm   4.0 mph 74 % 0.00 in
10:40 89.6 °F 80.2 °F 30.04 in SSW 6.0 mph 6.0 mph 74 % 0.00 in
10:45 89.6 °F 79.3 °F 30.04 in SSW 1.0 mph 6.0 mph 72 % 0.00 in
10:50 89.2 °F 78.6 °F 30.04 in ESE 2.0 mph 7.0 mph 71 % 0.00 in
10:55 89.6 °F 79.7 °F 30.04 in South 8.0 mph 8.0 mph 73 % 0.00 in
11:00 90.1 °F 79.9 °F 30.04 in WSW 1.0 mph 8.0 mph 72 % 0.00 in
11:05 91.6 °F 81.7 °F 30.04 in SSW 1.0 mph 8.0 mph 73 % 0.00 in
11:10 92.3 °F 80.2 °F 30.04 in SW 2.0 mph 8.0 mph 68 % 0.00 in
11:15 91.9 °F 79.3 °F 30.04 in SSE 1.0 mph 6.0 mph 67 % 0.00 in
11:20 91.6 °F 79.5 °F 30.04 in SSW 5.0 mph 6.0 mph 68 % 0.00 in
11:25 91.6 °F 79.9 °F 30.04 in SE 1.0 mph 7.0 mph 69 % 0.00 in
11:30 91.6 °F 79.9 °F 30.04 in South 2.0 mph 7.0 mph 69 % 0.00 in
11:35 91.6 °F 79.0 °F 30.03 in Calm   8.0 mph 67 % 0.00 in
11:40 92.1 °F 80.1 °F 30.03 in SE 3.0 mph 8.0 mph 68 % 0.00 in
11:45 92.8 °F 80.2 °F 30.03 in SE 2.0 mph 8.0 mph 67 % 0.00 in
11:50 93.0 °F 79.5 °F 30.03 in SSW 1.0 mph 8.0 mph 65 % 0.00 in
11:55 92.7 °F 78.6 °F 30.03 in South 4.0 mph 8.0 mph 64 % 0.00 in
12:00 93.0 °F 79.5 °F 30.03 in SSW 1.0 mph 8.0 mph 65 % 0.00 in
12:05 93.4 °F 78.4 °F 30.02 in South 4.0 mph 8.0 mph 62 % 0.00 in
12:10 93.9 °F 80.4 °F 30.02 in SE 1.0 mph 8.0 mph 65 % 0.00 in
12:15 93.9 °F 79.0 °F 30.02 in West 2.0 mph 7.0 mph 62 % 0.00 in
12:16 93.9 °F 79.3 °F 30.02 in WSW 2.0 mph 7.0 mph 63 % 0.00 in
12:21 92.8 °F 79.3 °F 30.02 in West 2.0 mph 6.0 mph 65 % 0.00 in
12:26 93.4 °F 79.9 °F 30.02 in SW 1.0 mph 6.0 mph 65 % 0.00 in
12:31 93.6 °F 78.1 °F 30.01 in Calm   6.0 mph 61 % 0.00 in
12:36 93.4 °F 78.8 °F 30.01 in SW 1.0 mph 7.0 mph 63 % 0.00 in
12:41 93.0 °F 79.0 °F 30.01 in South 2.0 mph 7.0 mph 64 % 0.00 in
12:46 93.0 °F 79.0 °F 30.01 in NW 5.0 mph 7.0 mph 64 % 0.00 in
12:51 93.0 °F 78.6 °F 30.01 in SW 3.0 mph 7.0 mph 63 % 0.00 in
12:56 93.9 °F 80.4 °F 30.01 in SW 1.0 mph 7.0 mph 65 % 0.00 in
13:01 94.8 °F 77.7 °F 30.00 in West 1.0 mph 7.0 mph 58 % 0.00 in
13:06 95.2 °F 78.1 °F 30.00 in West 1.0 mph 7.0 mph 58 % 0.00 in
13:11 95.2 °F 79.2 °F 30.00 in SE 2.0 mph 6.0 mph 60 % 0.00 in
13:16 95.7 °F 78.6 °F 29.99 in South 4.0 mph 6.0 mph 58 % 0.00 in
13:21 96.1 °F 79.0 °F 30.00 in WNW 3.0 mph 6.0 mph 58 % 0.00 in
13:27 96.1 °F 79.3 °F 29.99 in West 2.0 mph 6.0 mph 59 % 0.00 in
13:31 96.4 °F 78.1 °F 29.99 in West 4.0 mph 5.0 mph 56 % 0.00 in
13:37 95.9 °F 77.7 °F 29.99 in WNW 1.0 mph 6.0 mph 56 % 0.00 in
13:42 95.5 °F 78.4 °F 29.99 in SSW 1.0 mph 6.0 mph 58 % 0.00 in
13:47 95.9 °F 78.8 °F 29.99 in WNW 1.0 mph 6.0 mph 58 % 0.00 in
13:52 96.6 °F 80.4 °F 29.99 in Calm   5.0 mph 60 % 0.00 in
13:57 96.4 °F 77.5 °F 29.99 in NW 4.0 mph 7.0 mph 55 % 0.00 in
14:02 96.1 °F 77.9 °F 29.99 in West 2.0 mph 7.0 mph 56 % 0.00 in
14:07 96.3 °F 79.0 °F 29.99 in Calm   7.0 mph 58 % 0.00 in
14:12 96.4 °F 77.5 °F 29.99 in NNW 4.0 mph 5.0 mph 55 % 0.00 in
14:17 96.1 °F 77.9 °F 29.98 in WNW 3.0 mph 6.0 mph 56 % 0.00 in
14:22 96.1 °F 77.4 °F 29.98 in WSW 2.0 mph 6.0 mph 55 % 0.00 in
14:27 96.4 °F 77.0 °F 29.98 in South 1.0 mph 6.0 mph 54 % 0.00 in
14:32 97.0 °F 77.0 °F 29.97 in SSE 5.0 mph 7.0 mph 53 % 0.00 in
14:33 96.8 °F 77.4 °F 29.97 in NE 1.0 mph 7.0 mph 54 % 0.00 in
14:38 97.2 °F 78.8 °F 29.97 in NE 1.0 mph 7.0 mph 56 % 0.00 in
14:43 97.7 °F 78.3 °F 29.97 in SSW 1.0 mph 7.0 mph 54 % 0.00 in
14:48 98.1 °F 79.2 °F 29.97 in North 2.0 mph 6.0 mph 55 % 0.00 in
14:53 98.1 °F 78.6 °F 29.97 in Calm   5.0 mph 54 % 0.00 in
14:58 98.2 °F 78.1 °F 29.96 in SSW 4.0 mph 5.0 mph 53 % 0.00 in
15:03 97.3 °F 76.8 °F 29.96 in SSW 2.0 mph 6.0 mph 52 % 0.00 in
15:08 96.6 °F 76.6 °F 29.96 in Calm   6.0 mph 53 % 0.00 in
15:13 96.3 °F 76.3 °F 29.96 in ENE 1.0 mph 6.0 mph 53 % 0.00 in
15:18 95.7 °F 75.9 °F 29.96 in ENE 4.0 mph 5.0 mph 53 % 0.00 in
15:24 95.5 °F 76.3 °F 29.96 in Calm   5.0 mph 54 % 0.00 in
15:29 96.1 °F 77.4 °F 29.96 in Calm   5.0 mph 55 % 0.00 in
15:34 97.0 °F 78.6 °F 29.96 in Calm   5.0 mph 56 % 0.00 in
15:39 97.9 °F 78.4 °F 29.96 in Calm   4.0 mph 54 % 0.00 in
15:44 97.7 °F 76.5 °F 29.95 in WSW 2.0 mph 5.0 mph 51 % 0.00 in
15:49 98.4 °F 77.2 °F 29.95 in NW 2.0 mph 6.0 mph 51 % 0.00 in
15:54 98.8 °F 77.5 °F 29.95 in SE 2.0 mph 6.0 mph 51 % 0.00 in
15:59 99.0 °F 78.8 °F 29.95 in SE 2.0 mph 6.0 mph 53 % 0.00 in
16:04 99.0 °F 77.0 °F 29.95 in Calm   6.0 mph 50 % 0.00 in
16:09 99.1 °F 77.2 °F 29.95 in SW 1.0 mph 6.0 mph 50 % 0.00 in
16:14 99.3 °F 76.1 °F 29.95 in Calm   5.0 mph 48 % 0.00 in
16:19 100.0 °F 78.6 °F 29.94 in SSW 1.0 mph 5.0 mph 51 % 0.00 in
16:24 100.2 °F 77.5 °F 29.94 in SSW 2.0 mph 5.0 mph 49 % 0.00 in
16:29 100.2 °F 75.7 °F 29.94 in West 2.0 mph 4.0 mph 46 % 0.00 in
16:34 99.7 °F 77.7 °F 29.94 in SSW 3.0 mph 4.0 mph 50 % 0.00 in
16:39 99.1 °F 77.9 °F 29.94 in North 1.0 mph 4.0 mph 51 % 0.00 in
16:44 99.3 °F 77.4 °F 29.94 in Calm   4.0 mph 50 % 0.00 in
16:49 99.5 °F 76.3 °F 29.94 in NNE 1.0 mph 4.0 mph 48 % 0.00 in
16:54 99.3 °F 76.8 °F 29.93 in SSW 1.0 mph 5.0 mph 49 % 0.00 in
16:59 99.3 °F 76.8 °F 29.93 in SSE 2.0 mph 5.0 mph 49 % 0.00 in
17:04 99.3 °F 77.4 °F 29.93 in South 2.0 mph 5.0 mph 50 % 0.00 in
17:09 99.7 °F 76.5 °F 29.93 in SSW 3.0 mph 5.0 mph 48 % 0.00 in
17:14 99.9 °F 77.9 °F 29.93 in SE 2.0 mph 5.0 mph 50 % 0.00 in
17:19 99.5 °F 75.7 °F 29.93 in Calm   4.0 mph 47 % 0.00 in
17:24 99.0 °F 75.7 °F 29.93 in SE 3.0 mph 5.0 mph 48 % 0.00 in
17:29 99.0 °F 75.7 °F 29.93 in SE 3.0 mph 5.0 mph 48 % 0.00 in
17:33 98.6 °F 76.6 °F 29.93 in NNW 2.0 mph 5.0 mph 50 % 0.00 in
17:38 98.4 °F 75.9 °F 29.92 in Calm   5.0 mph 49 % 0.00 in
17:43 98.2 °F 76.5 °F 29.93 in ENE 1.0 mph 5.0 mph 50 % 0.00 in
17:48 98.1 °F 76.3 °F 29.93 in Calm   5.0 mph 50 % 0.00 in
17:53 97.7 °F 75.9 °F 29.92 in Calm   4.0 mph 50 % 0.00 in
17:58 97.0 °F 77.0 °F 29.92 in NNW 2.0 mph 4.0 mph 53 % 0.00 in
18:03 95.4 °F 76.6 °F 29.92 in WNW 1.0 mph 6.0 mph 55 % 0.00 in
18:08 95.2 °F 76.5 °F 29.92 in NW 3.0 mph 6.0 mph 55 % 0.00 in
18:13 95.4 °F 76.1 °F 29.92 in NNW 1.0 mph 6.0 mph 54 % 0.00 in
18:18 95.7 °F 76.5 °F 29.92 in NE 1.0 mph 5.0 mph 54 % 0.00 in
18:23 96.1 °F 77.4 °F 29.92 in SE 5.0 mph 5.0 mph 55 % 0.00 in
18:28 95.4 °F 77.7 °F 29.92 in South 5.0 mph 10.0 mph 57 % 0.00 in
18:33 95.0 °F 78.4 °F 29.92 in SSE 6.0 mph 10.0 mph 59 % 0.00 in
18:38 94.5 °F 77.9 °F 29.92 in SE 4.0 mph 10.0 mph 59 % 0.00 in
18:43 94.3 °F 78.3 °F 29.92 in SSE 8.0 mph 10.0 mph 60 % 0.00 in
18:48 93.9 °F 77.9 °F 29.92 in ESE 3.0 mph 10.0 mph 60 % 0.00 in
18:53 93.9 °F 77.9 °F 29.92 in ESE 6.0 mph 10.0 mph 60 % 0.00 in
18:58 93.6 °F 78.1 °F 29.92 in SSE 4.0 mph 10.0 mph 61 % 0.00 in
19:03 93.4 °F 77.9 °F 29.92 in SSE 1.0 mph 9.0 mph 61 % 0.00 in
19:08 93.4 °F 78.4 °F 29.92 in ESE 4.0 mph 9.0 mph 62 % 0.00 in
19:13 93.2 °F 77.7 °F 29.92 in SSE 4.0 mph 9.0 mph 61 % 0.00 in
19:18 93.0 °F 78.1 °F 29.92 in SE 3.0 mph 7.0 mph 62 % 0.00 in
19:23 92.7 °F 78.3 °F 29.92 in ESE 4.0 mph 7.0 mph 63 % 0.00 in
19:29 92.5 °F 78.1 °F 29.92 in SW 3.0 mph 7.0 mph 63 % 0.00 in
19:34 92.3 °F 77.9 °F 29.93 in South 3.0 mph 9.0 mph 63 % 0.00 in
19:39 92.1 °F 78.3 °F 29.93 in SE 8.0 mph 9.0 mph 64 % 0.00 in
19:44 91.9 °F 78.4 °F 29.93 in SE 4.0 mph 9.0 mph 65 % 0.00 in
19:49 91.6 °F 79.0 °F 29.93 in ESE 5.0 mph 8.0 mph 67 % 0.00 in
19:54 91.2 °F 79.2 °F 29.94 in ESE 4.0 mph 12.0 mph 68 % 0.00 in
19:59 90.9 °F 78.8 °F 29.93 in SE 6.0 mph 12.0 mph 68 % 0.00 in
20:04 90.3 °F 78.3 °F 29.94 in SE 7.0 mph 12.0 mph 68 % 0.00 in
20:09 90.0 °F 77.9 °F 29.94 in ESE 4.0 mph 11.0 mph 68 % 0.00 in
20:14 89.8 °F 77.7 °F 29.94 in East 5.0 mph 11.0 mph 68 % 0.00 in
20:19 89.4 °F 77.9 °F 29.94 in ESE 3.0 mph 9.0 mph 69 % 0.00 in
20:24 89.4 °F 77.9 °F 29.94 in ESE 3.0 mph 9.0 mph 69 % 0.00 in
20:29 89.2 °F 77.7 °F 29.94 in ESE 9.0 mph 9.0 mph 69 % 0.00 in
20:39 89.1 °F 77.5 °F 29.93 in SSE 2.0 mph 9.0 mph 69 % 0.00 in
20:44 88.9 °F 77.4 °F 29.93 in South 1.0 mph 9.0 mph 69 % 0.00 in
20:49 88.5 °F 77.0 °F 29.93 in SSE 2.0 mph 7.0 mph 69 % 0.00 in
20:54 88.5 °F 77.5 °F 29.94 in SSE 3.0 mph 8.0 mph 70 % 0.00 in
20:59 88.3 °F 77.4 °F 29.93 in SE 4.0 mph 8.0 mph 70 % 0.00 in
21:04 88.3 °F 77.7 °F 29.93 in SE 4.0 mph 8.0 mph 71 % 0.00 in
21:09 88.3 °F 77.7 °F 29.94 in ESE 6.0 mph 9.0 mph 71 % 0.00 in
21:14 88.2 °F 77.9 °F 29.94 in SSE 7.0 mph 9.0 mph 72 % 0.00 in
21:19 88.0 °F 77.9 °F 29.94 in SSE 4.0 mph 9.0 mph 72 % 0.00 in
21:24 87.8 °F 77.7 °F 29.94 in SSE 3.0 mph 9.0 mph 72 % 0.00 in
21:29 87.6 °F 77.5 °F 29.94 in SSE 4.0 mph 9.0 mph 72 % 0.00 in
21:34 87.4 °F 77.4 °F 29.95 in East 5.0 mph 9.0 mph 72 % 0.00 in
21:39 87.4 °F 77.4 °F 29.95 in SE 5.0 mph 9.0 mph 72 % 0.00 in
21:44 87.4 °F 77.4 °F 29.95 in South 6.0 mph 9.0 mph 72 % 0.00 in
21:49 87.3 °F 77.2 °F 29.96 in SSE 3.0 mph 9.0 mph 72 % 0.00 in
21:54 87.3 °F 77.2 °F 29.96 in South 4.0 mph 9.0 mph 72 % 0.00 in
21:59 87.3 °F 77.2 °F 29.96 in SE 1.0 mph 9.0 mph 72 % 0.00 in
22:04 87.1 °F 77.0 °F 29.96 in South 5.0 mph 7.0 mph 72 % 0.00 in
22:09 86.7 °F 76.6 °F 29.96 in ESE 5.0 mph 7.0 mph 72 % 0.00 in
22:15 86.7 °F 76.6 °F 29.96 in SSE 5.0 mph 7.0 mph 72 % 0.00 in
22:20 86.5 °F 76.5 °F 29.96 in South 2.0 mph 6.0 mph 72 % 0.00 in
22:21 86.5 °F 76.5 °F 29.96 in SSE 3.0 mph 6.0 mph 72 % 0.00 in
22:22 86.5 °F 76.5 °F 29.96 in South 5.0 mph 6.0 mph 72 % 0.00 in
22:23 86.5 °F 76.5 °F 29.96 in SSE 3.0 mph 6.0 mph 72 % 0.00 in
22:27 86.5 °F 76.8 °F 29.96 in SSE 3.0 mph 6.0 mph 73 % 0.00 in
22:32 86.4 °F 76.6 °F 29.97 in South 5.0 mph 5.0 mph 73 % 0.00 in
22:37 86.4 °F 77.0 °F 29.97 in South 4.0 mph 7.0 mph 74 % 0.00 in
22:42 86.2 °F 77.0 °F 29.97 in South 5.0 mph 7.0 mph 74 % 0.00 in
22:47 86.0 °F 77.2 °F 29.97 in SSE 4.0 mph 7.0 mph 75 % 0.00 in
22:52 85.8 °F 77.4 °F 29.97 in SSW 5.0 mph 9.0 mph 76 % 0.00 in
22:57 85.8 °F 77.7 °F 29.97 in ESE 5.0 mph 9.0 mph 77 % 0.00 in
23:03 85.8 °F 77.7 °F 29.97 in SSE 3.0 mph 9.0 mph 77 % 0.00 in
23:08 85.6 °F 77.5 °F 29.98 in South 5.0 mph 10.0 mph 77 % 0.00 in
23:13 85.6 °F 77.9 °F 29.98 in SSE 2.0 mph 10.0 mph 78 % 0.00 in
23:18 85.5 °F 77.7 °F 29.98 in SSW 1.0 mph 10.0 mph 78 % 0.00 in
23:23 85.3 °F 78.1 °F 29.98 in SSE 6.0 mph 9.0 mph 79 % 0.00 in
23:28 85.1 °F 77.9 °F 29.98 in SSW 3.0 mph 9.0 mph 79 % 0.00 in
23:33 84.9 °F 78.1 °F 29.98 in SE 9.0 mph 9.0 mph 80 % 0.00 in
23:38 84.9 °F 78.1 °F 29.98 in SSE 3.0 mph 11.0 mph 80 % 0.00 in
23:43 84.7 °F 77.9 °F 29.98 in SE 6.0 mph 11.0 mph 80 % 0.00 in
23:48 84.7 °F 78.3 °F 29.98 in SSE 2.0 mph 11.0 mph 81 % 0.00 in
23:53 84.7 °F 78.3 °F 29.98 in SSE 7.0 mph 9.0 mph 81 % 0.00 in
23:58 84.6 °F 78.1 °F 29.98 in South 3.0 mph 9.0 mph 81 % 0.00 in
Spring, Texas: Villages of Bridgestone
Compliments of Weather Underground - 2.75 mb

Script developed by  Jim McMurry - jmcmurry@mwt.net Adapted for the template by  Wim van der Kuil - Leuven-Template.eu

You find our weather info also at:

UK Metoffice

WeatherCloud

Weather Underground

Mid-South Weather Network

AWEKAS

Citizen Weather Observer Program (CWOP)

HAMweather, WeatherForYou, PWS Weather

Equipment we use:

Weather-station
Davis Vantage Vue

Weather-program
Meteohub

Weather-server
Debian 7.9 x86 (Guest)

Provider
DreamHost

Davis Vantage Vue

Meteohub

Debian 7.9 x86 (Guest)

DreamHost